Time,TemperatureF,DewpointF,PressureIn,WindDirection,WindDirectionDegrees,WindSpeedMPH,WindSpeedGustMPH,Humidity,HourlyPrecipIn,Conditions,Clouds,dailyrainin,SoftwareType,DateUTC
2013-02-05 00:00:00,11.9,-2.4,29.95,ENE,68,1.8,4.0,52,0.00,,,0.00,WUHU216HW,2013-02-05 05:00:00,
2013-02-05 00:01:00,11.9,-2.1,29.95,NE,45,2.2,4.0,53,0.00,,,0.00,WUHU216HW,2013-02-05 05:01:00,
2013-02-05 00:06:00,11.9,-2.1,29.95,NE,45,1.1,2.2,53,0.00,,,0.00,WUHU216HW,2013-02-05 05:06:00,
2013-02-05 00:11:00,11.9,-2.1,29.95,NE,45,1.8,3.4,53,0.00,,,0.00,WUHU216HW,2013-02-05 05:11:00,
2013-02-05 00:16:00,11.9,-2.1,29.95,NE,45,0.9,3.4,53,0.00,,,0.00,WUHU216HW,2013-02-05 05:16:00,
2013-02-05 00:21:00,11.7,-2.2,29.95,NE,45,0.7,1.8,53,0.00,,,0.00,WUHU216HW,2013-02-05 05:21:00,
2013-02-05 00:26:00,11.7,-2.2,29.95,NE,45,0.4,1.1,53,0.00,,,0.00,WUHU216HW,2013-02-05 05:26:00,
2013-02-05 00:31:00,11.9,-2.1,29.95,NNW,338,0.4,0.7,53,0.00,,,0.00,WUHU216HW,2013-02-05 05:31:00,
2013-02-05 00:36:00,11.9,-2.1,29.96,North,0,0.9,0.9,53,0.00,,,0.00,WUHU216HW,2013-02-05 05:36:00,
2013-02-05 00:41:00,11.5,-2.4,29.96,ENE,68,1.3,1.3,53,0.00,,,0.00,WUHU216HW,2013-02-05 05:41:00,
2013-02-05 00:46:00,11.3,-2.5,29.96,South,180,0.4,1.6,53,0.00,,,0.00,WUHU216HW,2013-02-05 05:46:00,
2013-02-05 00:51:00,11.0,-2.9,29.96,North,0,1.1,1.6,53,0.00,,,0.00,WUHU216HW,2013-02-05 05:51:00,
2013-02-05 00:56:00,11.0,-2.9,29.96,NNE,23,1.3,2.0,53,0.00,,,0.00,WUHU216HW,2013-02-05 05:56:00,
2013-02-05 01:01:00,11.0,-2.9,29.96,North,0,1.6,2.0,53,0.00,,,0.00,WUHU216HW,2013-02-05 06:01:00,
2013-02-05 01:06:00,11.0,-2.9,29.95,North,0,0.4,1.6,53,0.00,,,0.00,WUHU216HW,2013-02-05 06:06:00,
2013-02-05 01:11:00,10.8,-3.1,29.96,NE,45,1.1,1.1,53,0.00,,,0.00,WUHU216HW,2013-02-05 06:11:00,
2013-02-05 01:16:00,10.8,-3.1,29.96,NNE,23,1.8,2.2,53,0.00,,,0.00,WUHU216HW,2013-02-05 06:16:00,
2013-02-05 01:21:00,10.8,-3.1,29.96,NNE,23,0.0,2.2,53,0.00,,,0.00,WUHU216HW,2013-02-05 06:21:00,
2013-02-05 01:26:00,10.8,-3.1,29.96,ENE,68,0.2,1.6,53,0.00,,,0.00,WUHU216HW,2013-02-05 06:26:00,
2013-02-05 01:31:00,10.6,-3.2,29.96,WSW,248,0.0,1.6,53,0.00,,,0.00,WUHU216HW,2013-02-05 06:31:00,
2013-02-05 01:36:00,10.4,-3.3,29.96,North,0,0.0,0.4,53,0.00,,,0.00,WUHU216HW,2013-02-05 06:36:00,
2013-02-05 01:41:00,10.4,-3.0,29.96,East,90,0.2,0.4,54,0.00,,,0.00,WUHU216HW,2013-02-05 06:41:00,
2013-02-05 01:46:00,10.4,-3.0,29.96,East,90,0.0,0.4,54,0.00,,,0.00,WUHU216HW,2013-02-05 06:46:00,
2013-02-05 01:51:00,10.4,-3.0,29.97,East,90,0.0,0.2,54,0.00,,,0.00,WUHU216HW,2013-02-05 06:51:00,
2013-02-05 01:56:00,10.3,-3.1,29.97,NNE,23,0.0,0.4,54,0.00,,,0.00,WUHU216HW,2013-02-05 06:56:00,
2013-02-05 02:01:00,10.1,-3.3,29.97,East,90,0.4,1.1,54,0.00,,,0.00,WUHU216HW,2013-02-05 07:01:00,
2013-02-05 02:06:00,9.9,-3.5,29.97,East,90,0.7,1.1,54,0.00,,,0.00,WUHU216HW,2013-02-05 07:06:00,
2013-02-05 02:11:00,9.7,-3.3,29.97,East,90,0.4,1.1,55,0.00,,,0.00,WUHU216HW,2013-02-05 07:11:00,
2013-02-05 02:16:00,9.4,-4.0,29.97,East,90,0.4,1.1,54,0.00,,,0.00,WUHU216HW,2013-02-05 07:16:00,
2013-02-05 02:21:00,9.4,-3.7,29.97,East,90,0.7,0.9,55,0.00,,,0.00,WUHU216HW,2013-02-05 07:21:00,
2013-02-05 02:26:00,9.2,-3.9,29.97,ENE,68,3.4,3.4,55,0.00,,,0.00,WUHU216HW,2013-02-05 07:26:00,
2013-02-05 02:31:00,9.0,-4.0,29.98,East,90,0.4,3.4,55,0.00,,,0.00,WUHU216HW,2013-02-05 07:31:00,
2013-02-05 02:36:00,9.0,-3.7,29.98,ENE,68,0.4,1.1,56,0.00,,,0.00,WUHU216HW,2013-02-05 07:36:00,
2013-02-05 02:41:00,8.8,-3.9,29.98,ESE,113,0.7,1.1,56,0.00,,,0.00,WUHU216HW,2013-02-05 07:41:00,
2013-02-05 02:46:00,8.8,-3.9,29.98,East,90,0.9,1.3,56,0.00,,,0.00,WUHU216HW,2013-02-05 07:46:00,
2013-02-05 02:51:00,8.6,-4.0,29.98,East,90,1.6,1.6,56,0.00,,,0.00,WUHU216HW,2013-02-05 07:51:00,
2013-02-05 02:56:00,8.6,-4.0,29.97,ENE,68,0.4,1.6,56,0.00,,,0.00,WUHU216HW,2013-02-05 07:56:00,
2013-02-05 03:01:00,8.6,-4.0,29.97,ENE,68,0.7,2.0,56,0.00,,,0.00,WUHU216HW,2013-02-05 08:01:00,
2013-02-05 03:06:00,8.6,-4.0,29.97,East,90,0.7,2.0,56,0.00,,,0.00,WUHU216HW,2013-02-05 08:06:00,
2013-02-05 03:11:00,8.6,-4.4,29.98,East,90,0.0,0.7,55,0.00,,,0.00,WUHU216HW,2013-02-05 08:11:00,
2013-02-05 03:16:00,8.5,-4.6,29.98,East,90,0.0,0.4,55,0.00,,,0.00,WUHU216HW,2013-02-05 08:16:00,
2013-02-05 03:21:00,8.3,-4.8,29.98,East,90,0.0,0.4,55,0.00,,,0.00,WUHU216HW,2013-02-05 08:21:00,
2013-02-05 03:26:00,8.3,-4.8,29.98,East,90,0.0,0.4,55,0.00,,,0.00,WUHU216HW,2013-02-05 08:26:00,
2013-02-05 03:31:00,8.3,-4.8,29.98,East,90,0.0,0.0,55,0.00,,,0.00,WUHU216HW,2013-02-05 08:31:00,
2013-02-05 03:36:00,8.3,-4.8,29.98,East,90,0.0,0.0,55,0.00,,,0.00,WUHU216HW,2013-02-05 08:36:00,
2013-02-05 03:41:00,8.3,-4.8,29.98,East,90,0.0,0.2,55,0.00,,,0.00,WUHU216HW,2013-02-05 08:41:00,
2013-02-05 03:46:00,8.3,-4.3,29.98,East,90,0.9,0.9,56,0.00,,,0.00,WUHU216HW,2013-02-05 08:46:00,
2013-02-05 03:51:00,8.1,-4.5,29.98,East,90,0.0,0.9,56,0.00,,,0.00,WUHU216HW,2013-02-05 08:51:00,
2013-02-05 03:56:00,7.9,-4.7,29.98,ENE,68,0.0,0.4,56,0.00,,,0.00,WUHU216HW,2013-02-05 08:56:00,
2013-02-05 04:01:00,7.9,-4.7,29.98,ENE,68,0.4,0.9,56,0.00,,,0.00,WUHU216HW,2013-02-05 09:01:00,
2013-02-05 04:06:00,7.9,-4.7,29.98,ENE,68,0.0,0.9,56,0.00,,,0.00,WUHU216HW,2013-02-05 09:06:00,
2013-02-05 04:11:00,7.9,-4.7,29.98,ENE,68,0.0,0.2,56,0.00,,,0.00,WUHU216HW,2013-02-05 09:11:00,
2013-02-05 04:16:00,7.9,-4.7,29.98,East,90,1.1,1.3,56,0.00,,,0.00,WUHU216HW,2013-02-05 09:16:00,
2013-02-05 04:21:00,7.9,-4.7,29.99,East,90,0.0,1.3,56,0.00,,,0.00,WUHU216HW,2013-02-05 09:21:00,
2013-02-05 04:26:00,7.9,-4.7,29.99,East,90,0.2,0.9,56,0.00,,,0.00,WUHU216HW,2013-02-05 09:26:00,
2013-02-05 04:31:00,7.7,-4.9,29.99,ESE,113,0.7,0.7,56,0.00,,,0.00,WUHU216HW,2013-02-05 09:31:00,
2013-02-05 04:36:00,7.6,-5.0,29.99,East,90,0.4,0.7,56,0.00,,,0.00,WUHU216HW,2013-02-05 09:36:00,
2013-02-05 04:41:00,7.4,-4.8,29.99,East,90,0.2,0.4,57,0.00,,,0.00,WUHU216HW,2013-02-05 09:41:00,
2013-02-05 04:46:00,7.4,-4.8,29.99,East,90,0.4,0.4,57,0.00,,,0.00,WUHU216HW,2013-02-05 09:46:00,
2013-02-05 04:51:00,7.2,-4.9,30.00,East,90,0.4,1.1,57,0.00,,,0.00,WUHU216HW,2013-02-05 09:51:00,
2013-02-05 04:56:00,7.0,-5.1,30.00,East,90,1.1,1.1,57,0.00,,,0.00,WUHU216HW,2013-02-05 09:56:00,
2013-02-05 05:01:00,7.0,-5.1,29.99,East,90,0.7,1.1,57,0.00,,,0.00,WUHU216HW,2013-02-05 10:01:00,
2013-02-05 05:06:00,6.8,-5.3,29.99,East,90,0.4,0.9,57,0.00,,,0.00,WUHU216HW,2013-02-05 10:06:00,
2013-02-05 05:11:00,6.8,-4.8,30.00,East,90,2.2,2.2,58,0.00,,,0.00,WUHU216HW,2013-02-05 10:11:00,
2013-02-05 05:16:00,6.8,-4.8,30.00,ENE,68,1.6,2.5,58,0.00,,,0.00,WUHU216HW,2013-02-05 10:16:00,
2013-02-05 05:21:00,6.8,-4.8,30.00,ENE,68,1.8,2.5,58,0.00,,,0.00,WUHU216HW,2013-02-05 10:21:00,
2013-02-05 05:26:00,6.8,-4.8,30.00,ENE,68,1.6,2.2,58,0.00,,,0.00,WUHU216HW,2013-02-05 10:26:00,
2013-02-05 05:31:00,7.0,-4.8,30.00,East,90,0.4,1.6,58,0.00,,,0.00,WUHU216HW,2013-02-05 10:31:00,
2013-02-05 05:36:00,7.0,-4.8,30.00,East,90,0.4,1.6,58,0.00,,,0.00,WUHU216HW,2013-02-05 10:36:00,
2013-02-05 05:41:00,7.2,-4.6,30.00,East,90,0.4,0.4,58,0.00,,,0.00,WUHU216HW,2013-02-05 10:41:00,
2013-02-05 05:46:00,7.0,-5.1,30.00,ENE,68,1.1,1.1,57,0.00,,,0.00,WUHU216HW,2013-02-05 10:46:00,
2013-02-05 05:51:00,6.8,-5.3,30.00,ENE,68,0.7,1.1,57,0.00,,,0.00,WUHU216HW,2013-02-05 10:51:00,
2013-02-05 05:56:00,6.8,-5.3,30.00,ENE,68,0.4,0.9,57,0.00,,,0.00,WUHU216HW,2013-02-05 10:56:00,
2013-02-05 06:01:00,6.8,-5.3,30.00,ENE,68,0.7,1.1,57,0.00,,,0.00,WUHU216HW,2013-02-05 11:01:00,
2013-02-05 06:06:00,6.8,-5.3,30.00,East,90,0.9,1.8,57,0.00,,,0.00,WUHU216HW,2013-02-05 11:06:00,
2013-02-05 06:11:00,6.8,-5.3,30.00,ENE,68,1.3,1.8,57,0.00,,,0.00,WUHU216HW,2013-02-05 11:11:00,
2013-02-05 06:16:00,6.8,-5.7,30.00,East,90,1.1,1.3,56,0.00,,,0.00,WUHU216HW,2013-02-05 11:16:00,
2013-02-05 06:21:00,6.8,-5.7,30.01,ENE,68,0.9,1.6,56,0.00,,,0.00,WUHU216HW,2013-02-05 11:21:00,
2013-02-05 06:26:00,6.8,-5.7,30.01,ENE,68,0.9,1.6,56,0.00,,,0.00,WUHU216HW,2013-02-05 11:26:00,
2013-02-05 06:31:00,6.8,-5.7,30.01,ENE,68,1.6,1.8,56,0.00,,,0.00,WUHU216HW,2013-02-05 11:31:00,
2013-02-05 06:36:00,6.7,-5.8,30.01,East,90,1.1,1.8,56,0.00,,,0.00,WUHU216HW,2013-02-05 11:36:00,
2013-02-05 06:41:00,6.7,-5.8,30.01,ENE,68,1.8,1.8,56,0.00,,,0.00,WUHU216HW,2013-02-05 11:41:00,
2013-02-05 06:46:00,6.7,-5.8,30.02,ENE,68,1.1,1.8,56,0.00,,,0.00,WUHU216HW,2013-02-05 11:46:00,
2013-02-05 06:51:00,6.8,-5.7,30.02,ENE,68,2.9,2.9,56,0.00,,,0.00,WUHU216HW,2013-02-05 11:51:00,
2013-02-05 06:56:00,6.7,-5.8,30.02,ENE,68,2.9,3.4,56,0.00,,,0.00,WUHU216HW,2013-02-05 11:56:00,
2013-02-05 07:01:00,6.7,-5.8,30.02,East,90,0.9,3.4,56,0.00,,,0.00,WUHU216HW,2013-02-05 12:01:00,
2013-02-05 07:06:00,6.5,-6.0,30.02,ENE,68,2.5,2.5,56,0.00,,,0.00,WUHU216HW,2013-02-05 12:06:00,
2013-02-05 07:11:00,6.3,-6.2,30.03,East,90,1.6,2.5,56,0.00,,,0.00,WUHU216HW,2013-02-05 12:11:00,
2013-02-05 07:16:00,6.3,-5.7,30.03,East,90,1.6,2.2,57,0.00,,,0.00,WUHU216HW,2013-02-05 12:16:00,
2013-02-05 07:21:00,6.3,-5.7,30.03,ENE,68,2.5,2.7,57,0.00,,,0.00,WUHU216HW,2013-02-05 12:21:00,
2013-02-05 07:26:00,6.3,-5.7,30.03,East,90,1.6,2.7,57,0.00,,,0.00,WUHU216HW,2013-02-05 12:26:00,
2013-02-05 07:31:00,6.3,-5.7,30.04,ENE,68,2.5,3.8,57,0.00,,,0.00,WUHU216HW,2013-02-05 12:31:00,
2013-02-05 07:36:00,6.5,-5.6,30.04,ENE,68,1.8,3.8,57,0.00,,,0.00,WUHU216HW,2013-02-05 12:36:00,
2013-02-05 07:41:00,6.5,-5.6,30.04,SE,135,0.7,2.5,57,0.00,,,0.00,WUHU216HW,2013-02-05 12:41:00,
2013-02-05 07:46:00,6.5,-5.6,30.05,ENE,68,2.5,2.9,57,0.00,,,0.00,WUHU216HW,2013-02-05 12:46:00,
2013-02-05 07:51:00,6.7,-5.5,30.04,ENE,68,2.0,2.9,57,0.00,,,0.00,WUHU216HW,2013-02-05 12:51:00,
2013-02-05 07:56:00,6.8,-5.3,30.05,ENE,68,1.3,3.4,57,0.00,,,0.00,WUHU216HW,2013-02-05 12:56:00,
2013-02-05 08:01:00,7.2,-4.9,30.05,ENE,68,0.7,3.4,57,0.00,,,0.00,WUHU216HW,2013-02-05 13:01:00,
2013-02-05 08:06:00,7.6,-4.6,30.05,ENE,68,1.1,1.3,57,0.00,,,0.00,WUHU216HW,2013-02-05 13:06:00,
2013-02-05 08:11:00,7.9,-4.3,30.05,SE,135,1.1,1.1,57,0.00,,,0.00,WUHU216HW,2013-02-05 13:11:00,
2013-02-05 08:16:00,8.3,-4.3,30.05,ESE,113,1.8,1.8,56,0.00,,,0.00,WUHU216HW,2013-02-05 13:16:00,
2013-02-05 08:21:00,8.3,-4.3,30.06,East,90,2.5,2.5,56,0.00,,,0.00,WUHU216HW,2013-02-05 13:21:00,
2013-02-05 08:26:00,8.5,-4.2,30.06,North,0,0.9,2.5,56,0.00,,,0.00,WUHU216HW,2013-02-05 13:26:00,
2013-02-05 08:31:00,8.6,-4.4,30.06,ESE,113,1.3,1.3,55,0.00,,,0.00,WUHU216HW,2013-02-05 13:31:00,
2013-02-05 08:36:00,8.8,-4.2,30.06,NE,45,1.1,1.3,55,0.00,,,0.00,WUHU216HW,2013-02-05 13:36:00,
2013-02-05 08:41:00,9.0,-4.0,30.06,NE,45,2.7,2.7,55,0.00,,,0.00,WUHU216HW,2013-02-05 13:41:00,
2013-02-05 08:46:00,9.4,-3.7,30.06,ESE,113,0.2,2.7,55,0.00,,,0.00,WUHU216HW,2013-02-05 13:46:00,
2013-02-05 08:51:00,9.4,-3.7,30.06,North,0,2.7,2.7,55,0.00,,,0.00,WUHU216HW,2013-02-05 13:51:00,
2013-02-05 08:56:00,9.4,-3.7,30.06,ESE,113,0.4,2.7,55,0.00,,,0.00,WUHU216HW,2013-02-05 13:56:00,
2013-02-05 09:01:00,9.5,-3.5,30.06,NNW,338,0.4,2.2,55,0.00,,,0.00,WUHU216HW,2013-02-05 14:01:00,
2013-02-05 09:06:00,9.7,-3.3,30.06,NNW,338,0.9,1.8,55,0.00,,,0.00,WUHU216HW,2013-02-05 14:06:00,
2013-02-05 09:11:00,9.9,-2.8,30.06,North,0,1.1,2.2,56,0.00,,,0.00,WUHU216HW,2013-02-05 14:11:00,
2013-02-05 09:16:00,10.1,-2.6,30.06,NW,315,0.4,2.2,56,0.00,,,0.00,WUHU216HW,2013-02-05 14:16:00,
2013-02-05 09:21:00,9.7,-2.6,30.06,North,0,0.4,2.9,57,0.00,,,0.00,WUHU216HW,2013-02-05 14:21:00,
2013-02-05 09:26:00,9.7,-3.0,30.06,WNW,293,2.0,3.4,56,0.00,,,0.00,WUHU216HW,2013-02-05 14:26:00,
2013-02-05 09:31:00,9.7,-3.0,30.06,West,270,1.3,3.4,56,0.00,,,0.00,WUHU216HW,2013-02-05 14:31:00,
2013-02-05 09:36:00,9.7,-2.6,30.06,WNW,293,2.5,2.5,57,0.00,,,0.00,WUHU216HW,2013-02-05 14:36:00,
2013-02-05 09:41:00,9.7,-2.6,30.06,WSW,248,1.1,2.5,57,0.00,,,0.00,WUHU216HW,2013-02-05 14:41:00,
2013-02-05 09:46:00,10.1,-2.2,30.06,NW,315,1.8,2.5,57,0.00,,,0.00,WUHU216HW,2013-02-05 14:46:00,
2013-02-05 09:51:00,10.1,-2.6,30.06,WNW,293,2.5,2.5,56,0.00,,,0.00,WUHU216HW,2013-02-05 14:51:00,
2013-02-05 09:56:00,10.1,-2.6,30.06,West,270,2.5,2.5,56,0.00,,,0.00,WUHU216HW,2013-02-05 14:56:00,
2013-02-05 10:01:00,10.3,-2.1,30.06,WSW,248,2.0,2.9,57,0.00,,,0.00,WUHU216HW,2013-02-05 15:01:00,
2013-02-05 10:06:00,10.3,-2.1,30.06,WNW,293,2.5,2.9,57,0.00,,,0.00,WUHU216HW,2013-02-05 15:06:00,
2013-02-05 10:11:00,10.4,-1.9,30.06,WSW,248,2.5,3.4,57,0.00,,,0.00,WUHU216HW,2013-02-05 15:11:00,
2013-02-05 10:16:00,10.4,-1.9,30.06,WSW,248,2.0,3.4,57,0.00,,,0.00,WUHU216HW,2013-02-05 15:16:00,
2013-02-05 10:21:00,10.8,-1.5,30.06,West,270,2.2,2.2,57,0.00,,,0.00,WUHU216HW,2013-02-05 15:21:00,
2013-02-05 10:26:00,11.0,-1.3,30.06,West,270,2.0,2.5,57,0.00,,,0.00,WUHU216HW,2013-02-05 15:26:00,
2013-02-05 10:31:00,11.2,-0.8,30.06,NW,315,1.1,2.5,58,0.00,,,0.00,WUHU216HW,2013-02-05 15:31:00,
2013-02-05 10:36:00,11.5,-0.5,30.06,NW,315,0.9,2.2,58,0.00,,,0.00,WUHU216HW,2013-02-05 15:36:00,
2013-02-05 10:41:00,11.9,-0.2,30.06,ENE,68,1.8,1.8,58,0.00,,,0.00,WUHU216HW,2013-02-05 15:41:00,
2013-02-05 10:46:00,12.6,0.6,30.06,ESE,113,0.7,2.0,58,0.00,,,0.00,WUHU216HW,2013-02-05 15:46:00,
2013-02-05 10:51:00,13.0,0.5,30.06,SSE,158,1.8,2.0,57,0.00,,,0.00,WUHU216HW,2013-02-05 15:51:00,
2013-02-05 10:56:00,13.0,0.1,30.06,WSW,248,3.1,3.1,56,0.00,,,0.00,WUHU216HW,2013-02-05 15:56:00,
2013-02-05 11:01:00,13.0,0.1,30.06,WSW,248,2.0,3.1,56,0.00,,,0.00,WUHU216HW,2013-02-05 16:01:00,
2013-02-05 11:06:00,12.8,-0.1,30.05,West,270,1.1,2.5,56,0.00,,,0.00,WUHU216HW,2013-02-05 16:06:00,
2013-02-05 11:11:00,12.8,-0.1,30.05,WNW,293,0.7,2.5,56,0.00,,,0.00,WUHU216HW,2013-02-05 16:11:00,
2013-02-05 11:16:00,12.8,-0.1,30.05,NNW,338,0.7,2.2,56,0.00,,,0.00,WUHU216HW,2013-02-05 16:16:00,
2013-02-05 11:21:00,13.0,0.1,30.05,ESE,113,1.6,1.6,56,0.00,,,0.00,WUHU216HW,2013-02-05 16:21:00,
2013-02-05 11:26:00,13.3,0.5,30.04,NE,45,0.4,2.5,56,0.00,,,0.00,WUHU216HW,2013-02-05 16:26:00,
2013-02-05 11:31:00,13.9,0.9,30.04,NNE,23,0.4,2.5,56,0.00,,,0.00,WUHU216HW,2013-02-05 16:31:00,
2013-02-05 11:36:00,13.9,0.9,30.03,West,270,3.4,3.4,56,0.00,,,0.00,WUHU216HW,2013-02-05 16:36:00,
2013-02-05 11:41:00,13.7,0.4,30.03,NW,315,3.4,3.4,55,0.00,,,0.00,WUHU216HW,2013-02-05 16:41:00,
2013-02-05 11:46:00,13.7,0.4,30.03,West,270,1.3,3.4,55,0.00,,,0.00,WUHU216HW,2013-02-05 16:46:00,
2013-02-05 11:51:00,14.0,1.1,30.02,WSW,248,1.6,2.7,56,0.00,,,0.00,WUHU216HW,2013-02-05 16:51:00,
2013-02-05 11:56:00,14.4,1.1,30.02,NW,315,1.6,2.9,55,0.00,,,0.00,WUHU216HW,2013-02-05 16:56:00,
2013-02-05 12:01:00,14.6,1.3,30.02,SSE,158,0.4,2.9,55,0.00,,,0.00,WUHU216HW,2013-02-05 17:01:00,
2013-02-05 12:06:00,14.8,1.0,30.02,West,270,2.2,2.2,54,0.00,,,0.00,WUHU216HW,2013-02-05 17:06:00,
2013-02-05 12:11:00,15.1,1.4,30.01,WSW,248,1.1,2.5,54,0.00,,,0.00,WUHU216HW,2013-02-05 17:11:00,
2013-02-05 12:16:00,15.3,1.5,30.02,WNW,293,0.0,2.5,54,0.00,,,0.00,WUHU216HW,2013-02-05 17:16:00,
2013-02-05 12:21:00,15.8,2.1,30.01,South,180,0.7,1.8,54,0.00,,,0.00,WUHU216HW,2013-02-05 17:21:00,
2013-02-05 12:26:00,16.4,2.5,30.01,WSW,248,1.1,2.5,54,0.00,,,0.00,WUHU216HW,2013-02-05 17:26:00,
2013-02-05 12:31:00,16.6,2.7,30.01,SW,225,0.7,2.5,54,0.00,,,0.00,WUHU216HW,2013-02-05 17:31:00,
2013-02-05 12:36:00,16.9,3.1,30.01,West,270,0.7,1.1,54,0.00,,,0.00,WUHU216HW,2013-02-05 17:36:00,
2013-02-05 12:41:00,16.9,3.1,30.00,WSW,248,0.7,0.9,54,0.00,,,0.00,WUHU216HW,2013-02-05 17:41:00,
2013-02-05 12:46:00,17.1,3.3,30.00,WSW,248,2.5,2.5,54,0.00,,,0.00,WUHU216HW,2013-02-05 17:46:00,
2013-02-05 12:51:00,16.9,3.1,30.00,WSW,248,2.9,3.4,54,0.00,,,0.00,WUHU216HW,2013-02-05 17:51:00,
2013-02-05 12:56:00,16.6,3.2,30.00,West,270,4.0,4.7,55,0.00,,,0.00,WUHU216HW,2013-02-05 17:56:00,
2013-02-05 13:01:00,16.2,2.8,30.00,WNW,293,3.6,4.7,55,0.00,,,0.00,WUHU216HW,2013-02-05 18:01:00,
2013-02-05 13:06:00,16.2,3.5,30.00,West,270,4.7,5.1,57,0.00,,,0.00,WUHU216HW,2013-02-05 18:06:00,
2013-02-05 13:11:00,16.2,3.5,30.00,WNW,293,3.8,5.1,57,0.00,,,0.00,WUHU216HW,2013-02-05 18:11:00,
2013-02-05 13:16:00,16.2,3.5,29.99,West,270,2.9,5.1,57,0.00,,,0.00,WUHU216HW,2013-02-05 18:16:00,
2013-02-05 13:21:00,16.2,3.5,29.99,WNW,293,3.4,5.1,57,0.00,,,0.00,WUHU216HW,2013-02-05 18:21:00,
2013-02-05 13:26:00,16.2,4.0,29.99,NW,315,3.1,4.3,58,0.00,,,0.00,WUHU216HW,2013-02-05 18:26:00,
2013-02-05 13:31:00,16.2,4.0,29.99,WNW,293,2.9,4.0,58,0.00,,,0.00,WUHU216HW,2013-02-05 18:31:00,
2013-02-05 13:36:00,16.2,3.5,29.98,WNW,293,3.4,4.0,57,0.00,,,0.00,WUHU216HW,2013-02-05 18:36:00,
2013-02-05 13:41:00,16.2,4.0,29.98,West,270,4.7,4.7,58,0.00,,,0.00,WUHU216HW,2013-02-05 18:41:00,
2013-02-05 13:46:00,16.2,4.3,29.98,WNW,293,3.6,4.7,59,0.00,,,0.00,WUHU216HW,2013-02-05 18:46:00,
2013-02-05 13:51:00,16.4,4.5,29.98,WNW,293,4.7,4.7,59,0.00,,,0.00,WUHU216HW,2013-02-05 18:51:00,
2013-02-05 13:56:00,16.6,4.7,29.97,West,270,3.1,4.7,59,0.00,,,0.00,WUHU216HW,2013-02-05 18:56:00,
2013-02-05 14:01:00,16.9,5.1,29.97,WNW,293,3.8,4.3,59,0.00,,,0.00,WUHU216HW,2013-02-05 19:01:00,
2013-02-05 14:06:00,17.1,4.8,29.97,West,270,4.5,4.9,58,0.00,,,0.00,WUHU216HW,2013-02-05 19:06:00,
2013-02-05 14:11:00,17.1,4.8,29.97,WSW,248,3.6,4.9,58,0.00,,,0.00,WUHU216HW,2013-02-05 19:11:00,
2013-02-05 14:16:00,17.5,5.6,29.97,West,270,4.0,4.9,59,0.00,,,0.00,WUHU216HW,2013-02-05 19:16:00,
2013-02-05 14:21:00,17.6,5.3,29.97,WNW,293,3.6,4.7,58,0.00,,,0.00,WUHU216HW,2013-02-05 19:21:00,
2013-02-05 14:26:00,17.8,5.5,29.96,West,270,2.5,4.3,58,0.00,,,0.00,WUHU216HW,2013-02-05 19:26:00,
2013-02-05 14:31:00,18.0,5.7,29.96,NW,315,4.0,4.0,58,0.00,,,0.00,WUHU216HW,2013-02-05 19:31:00,
2013-02-05 14:36:00,18.2,5.9,29.96,NW,315,4.7,5.8,58,0.00,,,0.00,WUHU216HW,2013-02-05 19:36:00,
2013-02-05 14:41:00,18.4,5.6,29.96,NW,315,4.0,5.8,57,0.00,,,0.00,WUHU216HW,2013-02-05 19:41:00,
2013-02-05 14:46:00,18.7,6.3,29.96,NW,315,4.0,5.4,58,0.00,,,0.00,WUHU216HW,2013-02-05 19:46:00,
2013-02-05 14:51:00,19.1,5.9,29.96,West,270,2.9,5.4,56,0.00,,,0.00,WUHU216HW,2013-02-05 19:51:00,
2013-02-05 14:56:00,19.4,6.1,29.95,NW,315,4.0,5.4,56,0.00,,,0.00,WUHU216HW,2013-02-05 19:56:00,
2013-02-05 15:01:00,19.8,6.1,29.95,West,270,4.5,5.6,55,0.00,,,0.00,WUHU216HW,2013-02-05 20:01:00,
2013-02-05 15:06:00,19.6,6.0,29.95,NW,315,4.0,5.6,55,0.00,,,0.00,WUHU216HW,2013-02-05 20:06:00,
2013-02-05 15:11:00,19.8,6.1,29.95,NW,315,3.6,5.6,55,0.00,,,0.00,WUHU216HW,2013-02-05 20:11:00,
2013-02-05 15:16:00,19.8,6.1,29.95,WNW,293,5.8,5.8,55,0.00,,,0.00,WUHU216HW,2013-02-05 20:16:00,
2013-02-05 15:22:00,20.2,6.5,29.95,WNW,293,4.7,5.8,55,0.00,,,0.00,WUHU216HW,2013-02-05 20:22:00,
2013-02-05 15:26:00,20.7,6.9,29.95,WNW,293,3.1,4.9,55,0.00,,,0.00,WUHU216HW,2013-02-05 20:26:00,
2013-02-05 15:32:00,21.4,7.7,29.95,West,270,4.7,4.7,55,0.00,,,0.00,WUHU216HW,2013-02-05 20:32:00,
2013-02-05 15:37:00,21.8,7.2,29.95,WNW,293,3.6,4.7,53,0.00,,,0.00,WUHU216HW,2013-02-05 20:37:00,
2013-02-05 15:42:00,21.8,7.2,29.95,NW,315,4.0,4.0,53,0.00,,,0.00,WUHU216HW,2013-02-05 20:42:00,
2013-02-05 15:47:00,21.8,7.2,29.95,NNW,338,4.7,4.7,53,0.00,,,0.00,WUHU216HW,2013-02-05 20:47:00,
2013-02-05 15:52:00,21.4,6.4,29.95,NW,315,3.4,5.4,52,0.00,,,0.00,WUHU216HW,2013-02-05 20:52:00,
2013-02-05 15:57:00,21.6,7.0,29.95,West,270,3.4,5.4,53,0.00,,,0.00,WUHU216HW,2013-02-05 20:57:00,
2013-02-05 16:02:00,22.3,7.7,29.95,NW,315,4.5,4.9,53,0.00,,,0.00,WUHU216HW,2013-02-05 21:02:00,
2013-02-05 16:07:00,22.7,7.7,29.95,NW,315,2.5,4.5,52,0.00,,,0.00,WUHU216HW,2013-02-05 21:07:00,
2013-02-05 16:12:00,22.7,7.2,29.95,NW,315,2.7,4.0,51,0.00,,,0.00,WUHU216HW,2013-02-05 21:12:00,
2013-02-05 16:16:00,22.3,7.3,29.95,WNW,293,4.0,4.0,52,0.00,,,0.00,WUHU216HW,2013-02-05 21:16:00,
2013-02-05 16:21:00,22.3,7.3,29.95,NW,315,2.5,4.0,52,0.00,,,0.00,WUHU216HW,2013-02-05 21:21:00,
2013-02-05 16:26:00,22.3,7.3,29.95,NW,315,3.1,3.8,52,0.00,,,0.00,WUHU216HW,2013-02-05 21:26:00,
2013-02-05 16:31:00,22.0,6.9,29.95,NW,315,3.8,4.0,52,0.00,,,0.00,WUHU216HW,2013-02-05 21:31:00,
2013-02-05 16:36:00,21.6,6.6,29.95,WNW,293,2.0,4.0,52,0.00,,,0.00,WUHU216HW,2013-02-05 21:36:00,
2013-02-05 16:41:00,21.4,6.9,29.95,WSW,248,2.2,3.6,53,0.00,,,0.00,WUHU216HW,2013-02-05 21:41:00,
2013-02-05 16:46:00,21.2,6.2,29.95,NW,315,2.2,3.1,52,0.00,,,0.00,WUHU216HW,2013-02-05 21:46:00,
2013-02-05 16:51:00,21.2,6.2,29.95,WNW,293,1.8,2.2,52,0.00,,,0.00,WUHU216HW,2013-02-05 21:51:00,
2013-02-05 16:56:00,21.2,6.7,29.95,NW,315,2.5,2.5,53,0.00,,,0.00,WUHU216HW,2013-02-05 21:56:00,
2013-02-05 17:01:00,21.1,6.5,29.95,NW,315,2.9,2.9,53,0.00,,,0.00,WUHU216HW,2013-02-05 22:01:00,
2013-02-05 17:06:00,20.9,6.8,29.95,NW,315,1.6,3.8,54,0.00,,,0.00,WUHU216HW,2013-02-05 22:06:00,
2013-02-05 17:11:00,20.9,6.8,29.95,NW,315,3.1,3.8,54,0.00,,,0.00,WUHU216HW,2013-02-05 22:11:00,
2013-02-05 17:16:00,20.7,6.6,29.94,NNW,338,2.2,3.6,54,0.00,,,0.00,WUHU216HW,2013-02-05 22:16:00,
2013-02-05 17:21:00,20.5,6.4,29.94,NNW,338,2.5,2.9,54,0.00,,,0.00,WUHU216HW,2013-02-05 22:21:00,
2013-02-05 17:26:00,20.5,6.4,29.94,NNW,338,2.0,3.4,54,0.00,,,0.00,WUHU216HW,2013-02-05 22:26:00,
2013-02-05 17:31:00,20.5,6.4,29.93,NW,315,0.9,3.4,54,0.00,,,0.00,WUHU216HW,2013-02-05 22:31:00,
2013-02-05 17:36:00,20.5,6.4,29.93,NNW,338,1.3,2.0,54,0.00,,,0.00,WUHU216HW,2013-02-05 22:36:00,
2013-02-05 17:41:00,20.5,6.4,29.93,NNE,23,0.9,1.8,54,0.00,,,0.00,WUHU216HW,2013-02-05 22:41:00,
2013-02-05 17:46:00,20.5,6.4,29.93,NNW,338,0.9,1.6,54,0.00,,,0.00,WUHU216HW,2013-02-05 22:46:00,
2013-02-05 17:51:00,20.5,6.8,29.93,NW,315,1.3,1.3,55,0.00,,,0.00,WUHU216HW,2013-02-05 22:51:00,
2013-02-05 17:56:00,20.5,6.8,29.93,NW,315,2.2,2.2,55,0.00,,,0.00,WUHU216HW,2013-02-05 22:56:00,
2013-02-05 18:01:00,20.5,6.8,29.93,NW,315,4.0,5.4,55,0.00,,,0.00,WUHU216HW,2013-02-05 23:01:00,
2013-02-05 18:06:00,20.7,6.9,29.92,WNW,293,3.4,5.4,55,0.00,,,0.00,WUHU216HW,2013-02-05 23:06:00,
2013-02-05 18:11:00,20.9,7.1,29.93,WNW,293,5.8,5.8,55,0.00,,,0.00,WUHU216HW,2013-02-05 23:11:00,
2013-02-05 18:16:00,20.7,6.9,29.92,WSW,248,5.6,6.3,55,0.00,,,0.00,WUHU216HW,2013-02-05 23:16:00,
2013-02-05 18:21:00,20.5,6.8,29.93,NW,315,5.4,6.7,55,0.00,,,0.00,WUHU216HW,2013-02-05 23:21:00,
2013-02-05 18:26:00,20.5,6.8,29.93,NNW,338,6.3,6.9,55,0.00,,,0.00,WUHU216HW,2013-02-05 23:26:00,
2013-02-05 18:31:00,20.5,6.8,29.93,NW,315,5.8,6.9,55,0.00,,,0.00,WUHU216HW,2013-02-05 23:31:00,
2013-02-05 18:36:00,20.5,6.8,29.93,NW,315,6.3,7.6,55,0.00,,,0.00,WUHU216HW,2013-02-05 23:36:00,
2013-02-05 18:41:00,20.5,7.2,29.93,NW,315,2.7,7.6,56,0.00,,,0.00,WUHU216HW,2013-02-05 23:41:00,
2013-02-05 18:46:00,20.5,7.2,29.93,NW,315,4.3,6.9,56,0.00,,,0.00,WUHU216HW,2013-02-05 23:46:00,
2013-02-05 18:51:00,20.5,6.8,29.93,North,0,0.2,4.7,55,0.00,,,0.00,WUHU216HW,2013-02-05 23:51:00,
2013-02-05 18:56:00,20.5,6.8,29.93,SE,135,0.0,2.5,55,0.00,,,0.00,WUHU216HW,2013-02-05 23:56:00,
2013-02-05 19:01:00,20.5,6.8,29.93,North,0,0.0,2.5,55,0.00,,,0.00,WUHU216HW,2013-02-06 00:01:00,
2013-02-05 19:06:00,20.5,6.8,29.93,East,90,0.2,0.9,55,0.00,,,0.00,WUHU216HW,2013-02-06 00:06:00,
2013-02-05 19:11:00,20.5,6.8,29.93,East,90,0.2,1.1,55,0.00,,,0.00,WUHU216HW,2013-02-06 00:11:00,
2013-02-05 19:16:00,20.5,6.8,29.93,ENE,68,0.7,1.1,55,0.00,,,0.00,WUHU216HW,2013-02-06 00:16:00,
2013-02-05 19:21:00,20.5,7.2,29.93,ENE,68,0.2,0.9,56,0.00,,,0.00,WUHU216HW,2013-02-06 00:21:00,
2013-02-05 19:26:00,20.5,7.2,29.93,ENE,68,0.9,0.9,56,0.00,,,0.00,WUHU216HW,2013-02-06 00:26:00,
2013-02-05 19:31:00,20.5,7.2,29.93,NE,45,0.0,0.9,56,0.00,,,0.00,WUHU216HW,2013-02-06 00:31:00,
2013-02-05 19:36:00,20.5,6.8,29.93,North,0,0.0,0.7,55,0.00,,,0.00,WUHU216HW,2013-02-06 00:36:00,
2013-02-05 19:41:00,20.5,6.8,29.93,NW,315,0.2,0.4,55,0.00,,,0.00,WUHU216HW,2013-02-06 00:41:00,
2013-02-05 19:46:00,20.5,7.2,29.93,SW,225,1.6,1.8,56,0.00,,,0.00,WUHU216HW,2013-02-06 00:46:00,
2013-02-05 19:51:00,20.3,7.0,29.92,ENE,68,0.0,2.2,56,0.00,,,0.00,WUHU216HW,2013-02-06 00:51:00,
2013-02-05 19:56:00,20.2,6.8,29.93,WNW,293,0.0,2.2,56,0.00,,,0.00,WUHU216HW,2013-02-06 00:56:00,
2013-02-05 20:01:00,20.2,6.8,29.93,ESE,113,1.1,1.1,56,0.00,,,0.00,WUHU216HW,2013-02-06 01:01:00,
2013-02-05 20:06:00,20.2,6.8,29.93,ESE,113,0.4,1.3,56,0.00,,,0.00,WUHU216HW,2013-02-06 01:06:00,
2013-02-05 20:11:00,20.0,7.1,29.93,East,90,0.0,1.3,57,0.00,,,0.00,WUHU216HW,2013-02-06 01:11:00,
2013-02-05 20:16:00,20.0,7.1,29.93,ENE,68,0.0,0.2,57,0.00,,,0.00,WUHU216HW,2013-02-06 01:16:00,
2013-02-05 20:21:00,19.8,6.9,29.93,East,90,0.0,0.0,57,0.00,,,0.00,WUHU216HW,2013-02-06 01:21:00,
2013-02-05 20:26:00,19.8,7.3,29.92,ESE,113,0.4,0.4,58,0.00,,,0.00,WUHU216HW,2013-02-06 01:26:00,
2013-02-05 20:31:00,19.8,7.3,29.92,SE,135,0.7,0.7,58,0.00,,,0.00,WUHU216HW,2013-02-06 01:31:00,
2013-02-05 20:36:00,20.0,7.5,29.93,SE,135,0.0,0.7,58,0.00,,,0.00,WUHU216HW,2013-02-06 01:36:00,
2013-02-05 20:41:00,20.0,7.5,29.93,SE,135,0.0,0.7,58,0.00,,,0.00,WUHU216HW,2013-02-06 01:41:00,
2013-02-05 20:46:00,20.0,7.9,29.92,East,90,0.7,0.9,59,0.00,,,0.00,WUHU216HW,2013-02-06 01:46:00,
2013-02-05 20:51:00,20.0,7.9,29.93,ESE,113,0.4,0.9,59,0.00,,,0.00,WUHU216HW,2013-02-06 01:51:00,
2013-02-05 20:56:00,19.8,7.8,29.93,SE,135,1.1,1.1,59,0.00,,,0.00,WUHU216HW,2013-02-06 01:56:00,
2013-02-05 21:01:00,19.8,7.8,29.93,SE,135,0.0,1.1,59,0.00,,,0.00,WUHU216HW,2013-02-06 02:01:00,
2013-02-05 21:06:00,19.8,7.8,29.93,SSW,203,0.0,1.1,59,0.00,,,0.00,WUHU216HW,2013-02-06 02:06:00,
2013-02-05 21:11:00,19.8,7.8,29.93,SE,135,0.0,0.0,59,0.00,,,0.00,WUHU216HW,2013-02-06 02:11:00,
2013-02-05 21:16:00,19.8,7.8,29.93,SE,135,0.7,0.7,59,0.00,,,0.00,WUHU216HW,2013-02-06 02:16:00,
2013-02-05 21:21:00,19.8,8.1,29.93,SE,135,0.0,0.7,60,0.00,,,0.00,WUHU216HW,2013-02-06 02:21:00,
2013-02-05 21:26:00,19.8,8.1,29.93,SE,135,0.0,0.7,60,0.00,,,0.00,WUHU216HW,2013-02-06 02:26:00,
2013-02-05 21:31:00,19.8,8.1,29.93,ESE,113,1.1,1.1,60,0.00,,,0.00,WUHU216HW,2013-02-06 02:31:00,
2013-02-05 21:36:00,19.8,8.1,29.93,ESE,113,0.0,1.1,60,0.00,,,0.00,WUHU216HW,2013-02-06 02:36:00,
2013-02-05 21:41:00,20.0,8.7,29.93,ESE,113,0.0,0.7,61,0.00,,,0.00,WUHU216HW,2013-02-06 02:41:00,
2013-02-05 21:46:00,20.0,8.7,29.93,ESE,113,0.0,0.0,61,0.00,,,0.00,WUHU216HW,2013-02-06 02:46:00,
2013-02-05 21:51:00,20.2,8.8,29.93,ESE,113,0.0,0.0,61,0.00,,,0.00,WUHU216HW,2013-02-06 02:51:00,
2013-02-05 21:56:00,20.2,8.8,29.92,ESE,113,0.0,0.0,61,0.00,,,0.00,WUHU216HW,2013-02-06 02:56:00,
2013-02-05 22:01:00,20.3,9.0,29.93,ESE,113,0.0,0.0,61,0.00,,,0.00,WUHU216HW,2013-02-06 03:01:00,
2013-02-05 22:06:00,20.3,9.0,29.93,ESE,113,1.1,1.1,61,0.00,,,0.00,WUHU216HW,2013-02-06 03:06:00,
2013-02-05 22:11:00,20.3,9.0,29.93,ESE,113,0.9,1.1,61,0.00,,,0.00,WUHU216HW,2013-02-06 03:11:00,
2013-02-05 22:16:00,20.3,9.0,29.93,SE,135,0.0,1.1,61,0.00,,,0.00,WUHU216HW,2013-02-06 03:16:00,
2013-02-05 22:21:00,20.3,9.0,29.93,ESE,113,0.7,1.1,61,0.00,,,0.00,WUHU216HW,2013-02-06 03:21:00,
2013-02-05 22:26:00,20.2,8.8,29.93,ESE,113,0.9,1.1,61,0.00,,,0.00,WUHU216HW,2013-02-06 03:26:00,
2013-02-05 22:31:00,20.2,8.8,29.92,ESE,113,1.1,1.1,61,0.00,,,0.00,WUHU216HW,2013-02-06 03:31:00,
2013-02-05 22:36:00,20.2,8.8,29.92,SSE,158,1.1,1.8,61,0.00,,,0.00,WUHU216HW,2013-02-06 03:36:00,
2013-02-05 22:41:00,20.2,8.5,29.91,SE,135,1.8,1.8,60,0.00,,,0.00,WUHU216HW,2013-02-06 03:41:00,
2013-02-05 22:46:00,20.2,8.5,29.91,SE,135,2.0,2.0,60,0.00,,,0.00,WUHU216HW,2013-02-06 03:46:00,
2013-02-05 22:51:00,20.2,8.5,29.91,SE,135,1.3,2.0,60,0.00,,,0.00,WUHU216HW,2013-02-06 03:51:00,
2013-02-05 22:56:00,20.0,8.3,29.91,SE,135,1.3,2.5,60,0.00,,,0.00,WUHU216HW,2013-02-06 03:56:00,
2013-02-05 23:01:00,20.0,8.7,29.91,SSE,158,2.0,2.5,61,0.00,,,0.00,WUHU216HW,2013-02-06 04:01:00,
2013-02-05 23:06:00,20.0,8.7,29.91,SE,135,1.8,2.2,61,0.00,,,0.00,WUHU216HW,2013-02-06 04:06:00,
2013-02-05 23:11:00,20.2,8.8,29.91,SE,135,1.8,2.2,61,0.00,,,0.00,WUHU216HW,2013-02-06 04:11:00,
2013-02-05 23:16:00,20.2,8.8,29.91,SE,135,1.1,2.0,61,0.00,,,0.00,WUHU216HW,2013-02-06 04:16:00,
2013-02-05 23:21:00,20.2,8.8,29.91,SE,135,0.4,1.8,61,0.00,,,0.00,WUHU216HW,2013-02-06 04:21:00,
2013-02-05 23:26:00,20.2,8.8,29.91,SE,135,0.2,1.6,61,0.00,,,0.00,WUHU216HW,2013-02-06 04:26:00,
2013-02-05 23:31:00,20.0,8.7,29.91,SSW,203,0.4,1.3,61,0.00,,,0.00,WUHU216HW,2013-02-06 04:31:00,
2013-02-05 23:36:00,20.0,8.7,29.91,SE,135,0.9,1.1,61,0.00,,,0.00,WUHU216HW,2013-02-06 04:36:00,
2013-02-05 23:41:00,20.0,9.0,29.91,SE,135,0.9,1.1,62,0.00,,,0.00,WUHU216HW,2013-02-06 04:41:00,
2013-02-05 23:46:00,20.0,9.0,29.91,SE,135,0.2,0.9,62,0.00,,,0.00,WUHU216HW,2013-02-06 04:46:00,
2013-02-05 23:51:00,20.0,9.0,29.91,SE,135,2.0,2.2,62,0.00,,,0.00,WUHU216HW,2013-02-06 04:51:00,
2013-02-05 23:56:00,19.8,8.8,29.91,ESE,113,0.0,2.2,62,0.00,,,0.00,WUHU216HW,2013-02-06 04:56:00,